• In Russia
  • List of Countries
  • For 7 days
  • Water Temperature
  • Weather Map
  • Weather Widgets
  • user-avatar
    Login

    Hourly Weather Duchan

    Today, 3 June, Wednesday

    Time Temperature Precipitation Wind Pressure Humidity
    00:00 +35°C° 0 mm 2 mps 749 mmHg 35%
    01:00 +35°C° 0 mm 2 mps 748 mmHg 36%
    02:00 +35°C° 0 mm 3 mps 748 mmHg 36%
    03:00 +35°C° 0 mm 3 mps 748 mmHg 35%
    04:00 +36°C° 0 mm 3 mps 748 mmHg 33%
    05:00 +36°C° 0 mm 3 mps 749 mmHg 32%
    06:00 +37°C° 0 mm 3 mps 749 mmHg 30%
    07:00 +41°C° 0 mm 4 mps 749 mmHg 24%
    08:00 +45°C° 0 mm 5 mps 749 mmHg 19%
    09:00 +47°C° 0 mm 6 mps 749 mmHg 13%
    10:00 +48°C° 0 mm 6 mps 749 mmHg 12%
    11:00 +49°C° 0 mm 6 mps 749 mmHg 11%
    12:00 +50°C° 0 mm 5 mps 749 mmHg 10%
    13:00 +51°C° 0 mm 6 mps 748 mmHg 10%
    14:00 +51°C° 0 mm 6 mps 748 mmHg 10%
    15:00 +51°C° 0 mm 6 mps 747 mmHg 11%
    16:00 +48°C° 0 mm 5 mps 747 mmHg 13%
    17:00 +46°C° 0 mm 5 mps 747 mmHg 15%
    18:00 +43°C° 0 mm 4 mps 747 mmHg 18%
    19:00 +42°C° 0 mm 4 mps 747 mmHg 18%
    20:00 +40°C° 0 mm 3 mps 748 mmHg 19%
    21:00 +39°C° 0 mm 3 mps 748 mmHg 19%
    22:00 +38°C° 0 mm 3 mps 748 mmHg 22%
    23:00 +36°C° 0 mm 2 mps 748 mmHg 25%

    Tomorrow, 4 June, Thursday

    Time Temperature Precipitation Wind Pressure Humidity
    00:00 +35°C° 0 mm 2 mps 748 mmHg 28%
    01:00 +35°C° 0 mm 2 mps 748 mmHg 30%
    02:00 +35°C° 0 mm 3 mps 748 mmHg 32%
    03:00 +34°C° 0 mm 3 mps 748 mmHg 34%
    04:00 +35°C° 0 mm 3 mps 748 mmHg 34%
    05:00 +36°C° 0 mm 4 mps 748 mmHg 33%
    06:00 +36°C° 0 mm 4 mps 749 mmHg 32%
    07:00 +40°C° 0 mm 5 mps 749 mmHg 26%
    08:00 +44°C° 0 mm 6 mps 749 mmHg 20%
    09:00 +47°C° 0 mm 6 mps 749 mmHg 13%
    10:00 +47°C° 0 mm 6 mps 749 mmHg 13%
    11:00 +48°C° 0 mm 6 mps 749 mmHg 12%
    12:00 +49°C° 0 mm 6 mps 748 mmHg 11%
    13:00 +49°C° 0 mm 6 mps 748 mmHg 10%
    14:00 +49°C° 0 mm 6 mps 748 mmHg 9%
    15:00 +51°C° 0 mm 6 mps 747 mmHg 8%
    16:00 +47°C° 0 mm 5 mps 747 mmHg 13%
    17:00 +45°C° 0 mm 5 mps 747 mmHg 17%
    18:00 +42°C° 0 mm 5 mps 748 mmHg 22%
    19:00 +41°C° 0 mm 5 mps 748 mmHg 24%
    20:00 +40°C° 0 mm 5 mps 748 mmHg 26%
    21:00 +39°C° 0 mm 5 mps 748 mmHg 27%
    22:00 +37°C° 0 mm 5 mps 748 mmHg 27%
    23:00 +37°C° 0 mm 5 mps 748 mmHg 27%

    Day after tomorrow, 5 June, Friday

    Time Temperature Precipitation Wind Pressure Humidity
    00:00 +37°C° 0 mm 5 mps 748 mmHg 27%
    01:00 +38°C° 0 mm 6 mps 747 mmHg 29%
    02:00 +36°C° 0 mm 6 mps 747 mmHg 32%
    03:00 +36°C° 0 mm 6 mps 747 mmHg 34%
    04:00 +36°C° 0 mm 7 mps 747 mmHg 38%
    05:00 +36°C° 0 mm 7 mps 748 mmHg 42%
    06:00 +36°C° 0 mm 7 mps 748 mmHg 46%
    07:00 +39°C° 0 mm 8 mps 749 mmHg 37%
    08:00 +43°C° 0 mm 9 mps 749 mmHg 28%
    09:00 +45°C° 0 mm 10 mps 749 mmHg 20%
    10:00 +47°C° 0 mm 9 mps 749 mmHg 18%
    11:00 +48°C° 0 mm 9 mps 748 mmHg 17%
    12:00 +48°C° 0 mm 9 mps 748 mmHg 15%
    13:00 +48°C° 0 mm 9 mps 748 mmHg 15%
    14:00 +48°C° 0 mm 9 mps 747 mmHg 16%
    15:00 +47°C° 0 mm 9 mps 747 mmHg 16%
    16:00 +45°C° 0 mm 8 mps 747 mmHg 19%
    17:00 +43°C° 0 mm 7 mps 747 mmHg 22%
    18:00 +41°C° 0 mm 7 mps 747 mmHg 24%
    19:00 +40°C° 0 mm 6 mps 747 mmHg 27%
    20:00 +39°C° 0 mm 5 mps 747 mmHg 30%
    21:00 +37°C° 0 mm 5 mps 748 mmHg 33%
    22:00 +37°C° 0 mm 5 mps 747 mmHg 34%
    23:00 +36°C° 0 mm 5 mps 747 mmHg 34%

    6 June, Saturday

    Time Temperature Precipitation Wind Pressure Humidity
    00:00 +36°C° 0 mm 5 mps 747 mmHg 35%
    01:00 +36°C° 0 mm 6 mps 747 mmHg 38%
    02:00 +36°C° 0 mm 6 mps 747 mmHg 41%
    03:00 +36°C° 0 mm 7 mps 746 mmHg 44%
    04:00 +35°C° 0 mm 7 mps 747 mmHg 45%
    05:00 +35°C° 0 mm 6 mps 747 mmHg 46%
    06:00 +35°C° 0 mm 6 mps 747 mmHg 48%
    07:00 +39°C° 0 mm 7 mps 748 mmHg 40%
    08:00 +41°C° 0 mm 7 mps 748 mmHg 32%
    09:00 +45°C° 0 mm 8 mps 748 mmHg 23%
    10:00 +45°C° 0 mm 8 mps 748 mmHg 21%
    11:00 +47°C° 0 mm 9 mps 748 mmHg 19%
    12:00 +48°C° 0 mm 9 mps 748 mmHg 17%
    13:00 +47°C° 0 mm 9 mps 747 mmHg 18%
    14:00 +47°C° 0 mm 9 mps 747 mmHg 19%
    15:00 +45°C° 0 mm 9 mps 747 mmHg 20%
    16:00 +44°C° 0 mm 8 mps 746 mmHg 22%
    17:00 +43°C° 0 mm 7 mps 746 mmHg 25%
    18:00 +40°C° 0 mm 6 mps 746 mmHg 28%
    19:00 +39°C° 0 mm 6 mps 747 mmHg 31%
    20:00 +37°C° 0 mm 5 mps 747 mmHg 35%
    21:00 +36°C° 0 mm 5 mps 747 mmHg 39%
    22:00 +36°C° 0 mm 5 mps 747 mmHg 37%
    23:00 +36°C° 0 mm 5 mps 747 mmHg 36%

    7 June, Sunday

    Time Temperature Precipitation Wind Pressure Humidity
    00:00 +36°C° 0 mm 5 mps 747 mmHg 35%
    01:00 +36°C° 0 mm 6 mps 746 mmHg 37%
    02:00 +36°C° 0 mm 6 mps 746 mmHg 40%
    03:00 +35°C° 0 mm 7 mps 746 mmHg 42%
    04:00 +35°C° 0 mm 7 mps 746 mmHg 43%
    05:00 +36°C° 0 mm 6 mps 746 mmHg 44%
    06:00 +36°C° 0 mm 6 mps 747 mmHg 45%
    07:00 +40°C° 0 mm 7 mps 747 mmHg 36%
    08:00 +43°C° 0 mm 7 mps 747 mmHg 27%
    09:00 +46°C° 0 mm 8 mps 748 mmHg 18%
    10:00 +48°C° 0 mm 8 mps 747 mmHg 16%
    11:00 +49°C° 0 mm 8 mps 747 mmHg 14%
    12:00 +50°C° 0 mm 9 mps 747 mmHg 12%
    13:00 +50°C° 0 mm 9 mps 747 mmHg 12%
    14:00 +49°C° 0 mm 9 mps 746 mmHg 12%
    15:00 +49°C° 0 mm 9 mps 746 mmHg 12%
    16:00 +46°C° 0 mm 8 mps 746 mmHg 17%
    17:00 +43°C° 0 mm 8 mps 746 mmHg 22%
    18:00 +40°C° 0 mm 7 mps 746 mmHg 27%
    19:00 +39°C° 0 mm 7 mps 746 mmHg 31%
    20:00 +38°C° 0 mm 6 mps 747 mmHg 34%
    21:00 +36°C° 0 mm 5 mps 747 mmHg 37%
    22:00 +36°C° 0 mm 5 mps 747 mmHg 37%
    23:00 +36°C° 0 mm 6 mps 747 mmHg 37%

    8 June, Monday

    Time Temperature Precipitation Wind Pressure Humidity
    00:00 +36°C° 0 mm 6 mps 746 mmHg 38%
    01:00 +35°C° 0 mm 6 mps 746 mmHg 41%
    02:00 +35°C° 0 mm 6 mps 746 mmHg 44%
    03:00 +34°C° 0 mm 6 mps 746 mmHg 47%
    04:00 +34°C° 0 mm 6 mps 746 mmHg 48%
    05:00 +34°C° 0 mm 5 mps 746 mmHg 49%
    06:00 +34°C° 0 mm 5 mps 747 mmHg 51%
    07:00 +37°C° 0 mm 5 mps 747 mmHg 38%
    08:00 +41°C° 0 mm 5 mps 747 mmHg 26%
    09:00 +45°C° 0 mm 6 mps 747 mmHg 14%
    10:00 +46°C° 0 mm 6 mps 747 mmHg 12%
    11:00 +47°C° 0 mm 6 mps 747 mmHg 10%
    12:00 +48°C° 0 mm 6 mps 747 mmHg 8%
    13:00 +48°C° 0 mm 6 mps 746 mmHg 8%
    14:00 +48°C° 0 mm 6 mps 746 mmHg 7%
    15:00 +49°C° 0 mm 7 mps 746 mmHg 7%
    16:00 +46°C° 0 mm 6 mps 746 mmHg 10%
    17:00 +43°C° 0 mm 5 mps 745 mmHg 13%
    18:00 +41°C° 0 mm 4 mps 745 mmHg 16%
    19:00 +38°C° 0 mm 3 mps 746 mmHg 22%
    20:00 +36°C° 0 mm 2 mps 746 mmHg 27%
    21:00 +32°C° 0 mm 2 mps 746 mmHg 33%
    22:00 +32°C° 0 mm 2 mps 746 mmHg 33%
    23:00 +32°C° 0 mm 2 mps 746 mmHg 34%
    Show more